New York, NY

10:22 AM EST on December 10, 2016 (GMT -0500)
Central Park

Weather History for KNYC - May, 2013

Change the Weather History Date:

Friday, May 10, 2013

  Actual Average Record
Temperature  
Mean Temperature 69 °F 61 °F  
Max Temperature 79 °F 69 °F 94 °F (1979)
Min Temperature 59 °F 52 °F 36 °F (1966)
Degree Days  
Heating Degree Days 0 5  
Month to date heating degree days 53 65  
Since 1 July heating degree days 4543 4658  
Cooling Degree Days 4 1  
Month to date cooling degree days 4 10  
Year to date cooling degree days 6 22  
Growing Degree Days 19 (Base 50)    
Moisture  
Dew Point 54 °F    
Average Humidity 61    
Maximum Humidity 80    
Minimum Humidity 42    
Precipitation  
Precipitation 0.01 in 0.13 in 2.10 in (1989)
Month to date precipitation 3.53 1.28  
Year to date precipitation 14.75 16.88  
Snow  
Snow 0.00 in 0.00 in 0.00 in (2002)
Month to date snowfall 0.0 0.0  
Since 1 July snowfall 26.1 25.8  
Snow Depth 0.00 in    
Sea Level Pressure  
Sea Level Pressure 29.95 in    
Wind  
Wind Speed 4 mph (WSW)    
Max Wind Speed 10 mph    
Max Gust Speed 20 mph    
Visibility 9 miles    
Events      
T = Trace of Precipitation, MM = Missing Value Source: NWS Daily Summary

Daily Weather History Graph

Daily Weather History Graph

Search for Another Location

Airport or City:

Trip Planner

Search our weather history database for the weather conditions in past years. The results will help you decide how hot, cold, wet, or windy it might be!

Date:

Astronomy

May. 10, 2013 Rise Set
Actual Time 5:43 AM EDT 8:01 PM EDT
Civil Twilight 5:12 AM EDT 8:32 PM EDT
Nautical Twilight 4:35 AM EDT 9:10 PM EDT
Astronomical Twilight 3:53 AM EDT 9:52 PM EDT
Moon 6:05 AM EDT 8:48 PM EDT
Length of Visible Light 15h 19m
Length of Day
14h 18m
New Moon, 0% of the Moon is Illuminated
May 10
New Moon
May 18
First Quarter
May 25
Full
May 31
Last Quarter
Jun 8
New

Hourly Weather History & Observations

Time (EDT) Temp. Dew Point Humidity Pressure Visibility Wind Dir Wind Speed Gust Speed Precip Events Conditions
12:51 AM 62.1 °F 54.0 °F 75% 29.95 in 8.0 mi WSW 4.6 mph - N/A   Clear
1:51 AM 62.1 °F 54.0 °F 75% 29.94 in 8.0 mi West 3.5 mph - N/A   Clear
2:51 AM 61.0 °F 54.0 °F 78% 29.94 in 8.0 mi WNW 3.5 mph - N/A   Clear
3:51 AM 60.1 °F 54.0 °F 80% 29.94 in 8.0 mi West 3.5 mph - N/A   Clear
4:51 AM 60.1 °F 54.0 °F 80% 29.95 in 8.0 mi West 3.5 mph - N/A   Clear
5:51 AM 59.0 °F 54.0 °F 83% 29.97 in 6.0 mi West 3.5 mph - N/A   Haze
6:51 AM 60.1 °F 54.0 °F 80% 29.99 in 8.0 mi Variable 4.6 mph - N/A   Clear
7:51 AM 62.1 °F 54.0 °F 75% 30.00 in 9.0 mi Variable 6.9 mph - N/A   Clear
8:51 AM 64.0 °F 54.0 °F 70% 30.00 in 9.0 mi Calm Calm - N/A   Clear
9:51 AM 68.0 °F 55.0 °F 63% 30.00 in 10.0 mi Calm Calm - N/A   Clear
10:51 AM 72.0 °F 54.0 °F 53% 29.99 in 10.0 mi Calm Calm - N/A   Clear
11:51 AM 73.9 °F 53.1 °F 48% 29.98 in 10.0 mi Calm Calm - N/A   Clear
12:51 PM 75.9 °F 53.1 °F 45% 29.97 in 10.0 mi Variable 5.8 mph - N/A   Clear
1:51 PM 78.1 °F 54.0 °F 43% 29.96 in 10.0 mi Variable 3.5 mph - N/A   Clear
2:51 PM 79.0 °F 55.0 °F 44% 29.95 in 10.0 mi Variable 3.5 mph - N/A   Clear
3:51 PM 75.0 °F 55.0 °F 50% 29.94 in 10.0 mi Variable 4.6 mph 18.4 mph N/A   Clear
4:51 PM 73.0 °F 54.0 °F 51% 29.94 in 10.0 mi South 8.1 mph - N/A   Clear
5:51 PM 71.1 °F 54.0 °F 55% 29.94 in 10.0 mi North - - N/A   Clear
6:51 PM 68.0 °F 55.0 °F 63% 29.92 in 10.0 mi South 8.1 mph - N/A   Partly Cloudy
7:51 PM 66.0 °F 55.0 °F 68% 29.92 in 10.0 mi Variable 3.5 mph - N/A   Clear
8:51 PM 64.9 °F 54.0 °F 68% 29.91 in 10.0 mi South 3.5 mph - N/A   Clear
9:51 PM 66.0 °F 55.0 °F 68% 29.93 in 10.0 mi Calm Calm - N/A   Clear
10:51 PM 66.0 °F 54.0 °F 65% 29.91 in 10.0 mi Variable 5.8 mph - N/A   Clear
11:51 PM 66.9 °F 55.0 °F 66% 29.89 in 10.0 mi SW 8.1 mph - N/A   Partly Cloudy